Flag for India Weather past 2 weeks in Gurdaspur, Punjab, India

Now
50 °F

Fog.


Feels Like: 50 °F
Forecast: 49 / 69 °F
Wind: No wind

Location: Amritsar Airport

Current Time: Dec 21, 2014 at 12:43:00 PM

Latest Report: Dec 21, 2014 at 12:00 PM


Visibility: 0 mi

Pressure: 30.09 "Hg

Humidity: 82%

Dew point: 45 °F

Location of GurdaspurLocation

Historic Weather in Gurdaspur — Graph

°F

Gurdaspur temperature yesterday

Maximum temperature yesterday: 48 °F (at 4:30 PM)
Minimum temperature yesterday: 43 °F (at 4:30 AM)
Average temperature yesterday: 45 °F

Past Weeks' High & Low Weather Summary

 TemperatureHumidityPressure
High77 °F (Dec 6, 3:00 PM)100% (Dec 8, 3:30 AM)30.27 "Hg (Dec 8, 3:30 AM)
Low37 °F (Dec 16, 7:30 AM)22% (Dec 9, 3:30 PM)29.77 "Hg (Dec 12, 2:30 PM)
Average53 °F77%30.08 "Hg
* Reported Dec 6 10:30 AM — Dec 21 11:00 AM, Gurdaspur, Weather by CustomWeather, © 2014

Note: Actual official high and low records may vary slightly from our data, if they occured in-between our weather recording intervals... More about our weather records

Advertising

Gurdaspur weather history for previous 24 hours

 ConditionsComfort  
Time TempWeatherWind HumidityBarometerVisibility
11:00 AM
Dec 21
48 °FFog.No wind87%30.09 "Hg1 mi
10:30 AM46 °FFog.No wind100%30.12 "Hg1 mi
10:00 AM46 °FFog.No wind100%30.12 "Hg0 mi
9:30 AM45 °FFog.No wind100%30.09 "Hg0 mi
9:00 AM45 °FFog.No wind100%30.07 "Hg0 mi
8:30 AM45 °FFog.No wind100%30.07 "Hg0 mi
8:00 AM45 °FFog.No wind100%30.04 "Hg0 mi
7:30 AM45 °FFog.No wind100%30.04 "Hg0 mi
7:00 AM45 °FFog.No wind100%30.04 "Hg0 mi
6:30 AM45 °FFog.No wind100%30.04 "Hg0 mi
6:00 AM45 °FFog.No wind100%30.01 "Hg0 mi
5:30 AM45 °FFog.No wind100%30.01 "Hg0 mi
5:00 AM45 °FFog.No wind100%30.01 "Hg0 mi
4:30 AM45 °FFog.No wind100%30.01 "Hg0 mi
8:30 PM
Dec 20
45 °FFog.No wind100%30.07 "Hg1 mi
7:00 PM45 °FFog.No wind100%30.04 "Hg1 mi
6:00 PM46 °FFog.No wind93%30.04 "Hg1 mi
5:30 PM46 °FFog.No wind93%30.04 "Hg1 mi
5:00 PM48 °FFog.No wind87%30.07 "Hg1 mi
4:30 PM48 °FFog.No wind87%30.07 "Hg1 mi
3:30 PM46 °FFog.No wind93%30.09 "Hg1 mi
3:00 PM46 °FFog.2 mph93%30.09 "Hg1 mi
2:30 PM46 °FFog.1 mph93%30.09 "Hg1 mi
2:00 PM46 °FFog.No wind93%30.09 "Hg1 mi
1:30 PM46 °FFog.No wind87%30.12 "Hg1 mi
1:00 PM46 °FFog.No wind87%30.12 "Hg1 mi
12:30 PM46 °FFog.No wind87%30.15 "Hg1 mi
12:00 PM45 °FFog.No wind93%30.15 "Hg1 mi
Weather by CustomWeather, © 2014

See weather overviewHow to use our weather pages